User: anonymous   Login
Location: Unspecified
(0.0000°N, 0.0000°E)
Time: 13:52:06
(UTC+02:00)
Language:

Cosmos 1300 - Orbit

View from above orbital plane
View from above orbital plane
View from above satellite
View from above satellite

Ground track
Ground track

The orbit data is extracted from the following two-line orbital elements,

1 12785U 81082A   17085.75503310 +.00001087 +00000-0 +54037-4 0  9996
2 12785 082.5052 154.7717 0002276 123.8752 015.6892 15.16610148939357
Epoch (UTC): 26 March 2017 18:07:14
Eccentricity: 0.0002276
inclination: 82.5052°
perigee height: 514 km
apogee height: 517 km
right ascension of ascending node: 154.7717°
argument of perigee: 123.8752°
revolutions per day: 15.16610148
mean anomaly at epoch: 15.6892°
orbit number at epoch: 93935

The dashed part of the orbit path shows where the satellite is in the earth's shadow,  

DLR